Location: Emergency Services of Door County Brussels Substation
(44.7358°N, 87.6198°W)
Time: 01:36:09
(UTC+00:00)

Cosmos 1758 Rocket - Pass Details

Date: 13 December 2025
Orbit: 595 x 629 km, 82.5° (Epoch: 10 April)

Event Time Altitude Azimuth Distance (km) Brightness Sun altitude
Rises 22:45:35 0° 347° (NNW) 2,855 6.8 -6.3°
Reaches altitude 10° 22:47:50 10° 343° (NNW) 1,944 6.0 -6.7°
Maximum altitude 22:52:02 56° 265° (W) 710 4.3 -7.3°
Drops below altitude 10° 22:56:12 10° 188° (S) 1,923 6.6 -8.0°
Sets 22:58:25 0° 184° (S) 2,821 7.4 -8.4°
